Location: ??????????
(48.4699°N, 37.9573°E)
Time: 13:25:47
(UTC+00:00)

Cosmos 2098 Rocket - Pass Details

Date: 20 January 2021
Orbit: 366 x 1182 km, 82.9° (Epoch: 26 February)

Event Time Altitude Azimuth Distance (km) Brightness Sun altitude
Rises 16:42:05 0° 178° (S) 3,824 7.1 -25.1°
Reaches altitude 10° 16:44:35 10° 177° (S) 2,949 6.5 -25.5°
Maximum altitude 16:51:37 73° 94° (E) 1,226 4.2 -26.7°
Drops below altitude 10° 16:59:03 10° 12° (NNE) 3,104 6.5 -27.9°
Sets 17:01:43 0° 11° (N) 4,036 7.1 -28.3°
